Weather in Lutsk

Ukraine / Volyn Oblast     50°44′50″N   25°19′31″E
temp.,
°C
wind,
m/s
gust,
m/s
humid.,
%
clouds,
%
prec.,
mm/h
press.,
hPa
HPBL,
m
13 april, tue
tue1300:00+12se376238 0.0 1018143
03:00+10sse346792 0.0 101856
06:00+11se3463100 0.0 101773
09:00+10se3466100 0.0 1018119
12:00+14wsw226299 0.0 1017602
15:00+13wnw657398 0.0 1017735
18:00+9nw667692 0.0 1017553
21:00+6nw578393 0.0 1018338
14 april, wed
wed1400:00+5nnw4687100 0.0 1017355
03:00+5nnw479097 0.0 1016343
06:00+5n5790100 0.0 1014357
09:00+5nnw3489100 0.0 1014375
12:00+6nnw3387100 0.0 1014435
15:00+5nw4490100 0.5 1014360
18:00+4nw4491100 0.7 1014325
21:00+4wnw3493100 0.9 1015303
15 april, thu
thu1500:00+3wnw3394100 0.0 1015252
03:00+2wnw3497100 0.0 1015223
06:00+2wnw3498100 0.0 1015255
09:00+2wnw3497100 0.6 1016275
12:00+3wnw4496100 0.1 1016315
15:00+3wnw5795100 2.1 1016333
18:00+4wnw5895100 0.1 1016353
21:00+3wnw61197100 0.8 1015305
16 april, fri
fri1600:00+3nw61297100 0.4 1014362
03:00+4nw51198100 0.6 1013342
06:00+5nw51098100 3.6 1012434
09:00+5nw61097100 5.4 1013516
12:00+5nw61096100 1.4 1013506
15:00+5nw61096100 2.1 1014516
18:00+5wnw61096100 0.5 1015483
21:00+5wnw61097100 0.6 1016369
17 april, sat
sat1700:00+4wnw5997100 0.1 1016338
03:00+4w479799 0.1 1016269
06:00+4w3498100 0.0 1017177
09:00+5w2296100 0.1 1018185
12:00+9ssw118082 0.1 1018570
15:00+10nw127099 1.0 1018604
18:00+8e2580100 0.3 1019461
21:00+7ene358593 0.3 1019176